Tracking 18840 objects as of 19-November-2017
HD Live streaming from Space Station
objects crossing your sky now

FENGYUN 1C DEB

Track FENGYUN 1C DEB now!
10-day predictions


NORAD ID: 30293
Int'l Code: 1999-025ZE
Perigee: 713.6 km
Apogee: 851.1 km
Inclination: 99.2 °
Period: 100.4 minutes
Semi major axis: 7153 km
RCS: 0.0098 m2 (small)
Launch date: May 10, 1999
Source: People's Republic of China (PRC)
Launch site: Taiyaun Space Center, China (TSC)

Note: This is SATELLITE DEBRIS
aabbcc
Your satellite tracking list
Your tracking list is empty




NASA's NSSDC Master Catalog

Two Line Element Set (TLE):
1 30293U 99025ZE  17322.58673788 +.00000600 +00000-0 +21673-3 0  9997
2 30293 099.1987 251.5140 0096119 081.8756 040.2797 14.34964707566271
Source of the keplerian elements: AFSPC